Weather WX

World > North America > United States > New Jersey

North Haledon, New Jersey Regional Weather

Lat: 40.96N, Lon: 74.19W
Wx Zone: NJZ004
Warning FLW WEATHER ALERT - (More Info. Click Here) Warning
Feedback

North Haledon, NJ Regional Weather

Expires:201907170900;;770124
ASUS41 KPHI 170812
RWRPHI

REGIONAL WEATHER ROUNDUP
NATIONAL WEATHER SERVICE MOUNT HOLLY NJ
400 AM EDT WED JUL 17 2019

NOTE:  "FAIR" INDICATES FEW OR NO CLOUDS BELOW 12,000 FEET WITH NO
SIGNIFICANT WEATHER AND/OR OBSTRUCTIONS TO VISIBILITY.

 * = STATION DOES NOT REPORT PRECIPITATION (E.G. RAIN, SNOW, ETC.) 
        OR FOG.


NJZ001>014-170900-
NORTHERN NEW JERSEY
  
CITY           SKY/WX    TMP DP  RH WIND       PRES   REMARKS
SUSSEX         MOCLDY    72  68  87 CALM      29.97F                  
ANDOVER*         N/A     71  69  93 CALM      29.98F                  
MORRISTOWN     FAIR      73  68  83 CALM      29.97F                  
NEWARK         MOCLDY    80  66  62 SW6       29.96F                  
TETERBORO      MOCLDY    80  66  62 SW7       29.95F                  
CALDWELL       FAIR      80  67  64 CALM      29.96F                  
SOMERVILLE     FAIR      72  68  87 CALM      29.96F                  
ALLAIRE*       FAIR      77  74  90 S3        29.99F                  
TOMS RIVER*    FAIR      77  32  19 SW7       29.98F                  

$$

SKY/WX - Weather  TMP - Temperature  DP - Dew Point  RH - Relative Humidity
WIND - Wind Direction/Speed PRES - Barometric Pressure VSB - Visibility
WCI - Wind Chill Index E13G22 Wind - East Wind 13 mph/Gusts of 22 mph